TimeGMT,TemperatureF,Dew PointF,Humidity,Sea Level PressureIn,VisibilityMPH,Wind Direction,Wind SpeedMPH,Gust SpeedMPH,PrecipitationIn,Events,Conditions,WindDirDegrees,DateUTC
12:20 AM,37.4,33.8,87,29.39,4.3,NW,6.9,-,N/A,Rain,Light Rain,310,2012-12-07 00:20:00
12:50 AM,37.4,33.8,87,29.42,6.2,NW,5.8,-,N/A,Rain,Light Rain,320,2012-12-07 00:50:00
1:20 AM,37.4,33.8,87,29.42,6.2,WNW,5.8,-,N/A,,Partly Cloudy,300,2012-12-07 01:20:00
1:50 AM,37.4,33.8,87,29.42,-9999.0,NW,6.9,-,N/A,,Clear,310,2012-12-07 01:50:00
2:20 AM,35.6,32.0,87,29.44,-9999.0,NW,4.6,-,N/A,,Clear,320,2012-12-07 02:20:00
2:50 AM,37.4,32.0,81,29.47,-9999.0,NNW,8.1,-,N/A,,Clear,330,2012-12-07 02:50:00
3:20 AM,37.4,32.0,81,29.50,6.2,NNW,9.2,-,N/A,,Unknown,330,2012-12-07 03:20:00
3:50 AM,37.4,30.2,75,29.53,6.2,NW,12.7,-,N/A,,Unknown,310,2012-12-07 03:50:00
4:20 AM,37.4,32.0,81,29.53,6.2,West,5.8,-,N/A,,Unknown,270,2012-12-07 04:20:00
4:50 AM,35.6,32.0,87,29.53,6.2,WSW,5.8,-,N/A,,Unknown,250,2012-12-07 04:50:00
5:20 AM,35.6,30.2,81,29.56,6.2,WSW,8.1,-,N/A,,Partly Cloudy,250,2012-12-07 05:20:00
5:50 AM,39.2,32.0,75,29.56,6.2,Variable,3.5,-,N/A,,Mostly Cloudy,0,2012-12-07 05:50:00
6:20 AM,37.4,32.0,81,29.56,6.2,SSW,8.1,-,N/A,,Mostly Cloudy,200,2012-12-07 06:20:00
6:50 AM,37.4,32.0,81,29.56,6.2,SSW,6.9,-,N/A,,Mostly Cloudy,210,2012-12-07 06:50:00
7:20 AM,39.2,33.8,81,29.56,6.2,Variable,5.8,-,N/A,,Partly Cloudy,0,2012-12-07 07:20:00
7:50 AM,39.2,33.8,81,29.56,6.2,WSW,6.9,-,N/A,,Partly Cloudy,240,2012-12-07 07:50:00
8:20 AM,37.4,33.8,87,29.59,-9999.0,SW,5.8,-,N/A,,Clear,230,2012-12-07 08:20:00
8:50 AM,39.2,33.8,81,29.62,6.2,WNW,5.8,-,N/A,,Partly Cloudy,300,2012-12-07 08:50:00
9:20 AM,41.0,33.8,76,29.62,6.2,NW,12.7,-,N/A,,Partly Cloudy,320,2012-12-07 09:20:00
9:50 AM,42.8,33.8,70,29.65,6.2,NNW,13.8,-,N/A,,Partly Cloudy,330,2012-12-07 09:50:00
10:20 AM,42.8,33.8,70,29.68,6.2,North,15.0,-,N/A,,Scattered Clouds,350,2012-12-07 10:20:00
10:50 AM,42.8,33.8,70,29.68,6.2,North,17.3,28.8,N/A,,Scattered Clouds,350,2012-12-07 10:50:00
11:20 AM,42.8,33.8,70,29.71,6.2,North,17.3,-,N/A,,Partly Cloudy,350,2012-12-07 11:20:00
11:50 AM,44.6,33.8,66,29.74,6.2,NNW,15.0,-,N/A,,Partly Cloudy,330,2012-12-07 11:50:00
12:20 PM,44.6,33.8,66,29.74,6.2,NNW,15.0,-,N/A,,Partly Cloudy,330,2012-12-07 12:20:00
12:50 PM,44.6,33.8,66,29.77,6.2,NNW,10.4,-,N/A,,Partly Cloudy,330,2012-12-07 12:50:00
1:20 PM,44.6,33.8,66,29.80,6.2,Variable,6.9,-,N/A,,Scattered Clouds,0,2012-12-07 13:20:00
1:50 PM,46.4,35.6,66,29.83,6.2,SW,6.9,-,N/A,,Scattered Clouds,220,2012-12-07 13:50:00
2:20 PM,44.6,33.8,66,29.83,6.2,West,8.1,-,N/A,,Scattered Clouds,260,2012-12-07 14:20:00
2:50 PM,44.6,33.8,66,29.86,6.2,WNW,5.8,-,N/A,,Scattered Clouds,300,2012-12-07 14:50:00
3:20 PM,42.8,32.0,66,29.89,6.2,NW,6.9,-,N/A,,Scattered Clouds,320,2012-12-07 15:20:00
3:50 PM,41.0,32.0,70,29.92,6.2,West,5.8,-,N/A,,Scattered Clouds,260,2012-12-07 15:50:00
4:20 PM,41.0,32.0,70,29.92,6.2,NNW,10.4,-,N/A,,Partly Cloudy,340,2012-12-07 16:20:00
4:50 PM,41.0,30.2,65,29.95,6.2,WNW,5.8,-,N/A,,Partly Cloudy,300,2012-12-07 16:50:00
5:20 PM,41.0,32.0,70,29.98,6.2,NNW,6.9,-,N/A,,Partly Cloudy,340,2012-12-07 17:20:00
5:50 PM,39.2,30.2,70,29.98,-9999.0,WNW,6.9,-,N/A,,Clear,300,2012-12-07 17:50:00
6:20 PM,37.4,30.2,75,30.01,-9999.0,Variable,3.5,-,N/A,,Clear,0,2012-12-07 18:20:00
6:50 PM,37.4,30.2,75,30.01,-9999.0,NW,6.9,-,N/A,,Clear,320,2012-12-07 18:50:00
7:20 PM,33.8,28.4,81,30.04,-9999.0,Variable,3.5,-,N/A,,Clear,0,2012-12-07 19:20:00
7:50 PM,35.6,32.0,87,30.04,-9999.0,South,4.6,-,N/A,,Clear,170,2012-12-07 19:50:00
8:20 PM,35.6,30.2,81,30.06,-9999.0,Variable,2.3,-,N/A,,Clear,0,2012-12-07 20:20:00
8:50 PM,35.6,28.4,75,30.06,-9999.0,WSW,4.6,-,N/A,,Clear,250,2012-12-07 20:50:00
9:20 PM,33.8,30.2,87,30.06,-9999.0,West,4.6,-,N/A,,Clear,280,2012-12-07 21:20:00
9:50 PM,30.2,26.6,86,30.09,-9999.0,SW,4.6,-,N/A,,Clear,230,2012-12-07 21:50:00
10:20 PM,33.8,30.2,87,30.09,-9999.0,West,5.8,-,N/A,,Clear,280,2012-12-07 22:20:00
10:50 PM,32.0,28.4,87,30.09,-9999.0,WSW,3.5,-,N/A,,Clear,240,2012-12-07 22:50:00
11:20 PM,30.2,28.4,93,30.09,-9999.0,West,5.8,-,N/A,,Clear,280,2012-12-07 23:20:00
11:50 PM,30.2,28.4,93,30.12,6.2,West,4.6,-,N/A,,Partly Cloudy,260,2012-12-07 23:50:00